CW7500 Weather Reports


Display with metric or nautical units.
time (UTC)temp
F
wind
direction
speed
MPH
gust
MPH
rain 1hr
in
rain 24hr
in
rain mn
in
humidity
%
barometer
mb
20260831025600 68 270 1.0 2.0 0.24 0.24 0.24 100 1016.1
20260831025100 68 289 1.0 3.0 0.14 0.14 0.14 96 1016.0
20260831024100 70 290 0.0 3.0 0.02 0.02 0.02 88 1016.0
20260831023601 70 62 0.0 2.0 0.00 0.00 0.00 84 1015.9
20260831023100 70 148 1.0 2.0 0.00 0.00 0.00 83 1015.8
20260831022600 71 243 1.0 2.0 0.00 0.00 0.00 83 1015.7
20260831022100 71 238 1.0 3.0 0.00 0.00 0.00 83 1015.7
20260831021601 71 243 1.0 2.0 0.00 0.00 0.00 83 1015.7
20260831021100 71 317 1.0 3.0 0.00 0.00 0.00 81 1015.7
20260831020600 71 288 1.0 2.0 0.00 0.00 0.00 80 1015.7
20260831015600 71 197 1.0 3.0 0.00 0.00 0.00 78 1015.6
20260831015100 71 208 1.0 2.0 0.00 0.00 0.00 78 1015.6
20260831014600 71 299 0.0 3.0 0.00 0.00 0.00 77 1015.6
20260831014100 71 174 1.0 2.0 0.00 0.00 0.00 77 1015.6
20260831013600 71 239 1.0 3.0 0.00 0.00 0.00 76 1015.5
20260831013100 71 69 1.0 2.0 0.00 0.00 0.00 76 1015.5
20260831012600 71 303 1.0 2.0 0.00 0.00 0.00 75 1015.5
20260831011601 71 173 0.0 7.0 0.00 0.00 0.00 75 1015.3
20260831011100 71 189 0.0 2.0 0.00 0.00 0.00 74 1015.3
20260831010600 71 167 1.0 3.0 0.00 0.00 0.00 75 1015.3
20260831010100 72 119 0.0 2.0 0.00 0.00 0.00 74 1015.3
20260831005600 71 134 0.0 2.0 0.00 0.00 0.00 74 1015.2
20260831005100 71 7 1.0 2.0 0.00 0.00 0.00 73 1015.2
20260831004600 71 324 1.0 2.0 0.00 0.00 0.00 73 1015.1
20260831004100 72 243 1.0 3.0 0.00 0.00 0.00 73 1015.1
20260831003600 72 273 1.0 3.0 0.00 0.00 0.00 73 1014.9
20260831002600 72 310 0.0 2.0 0.00 0.00 0.00 72 1015.1
20260831001559 72 229 1.0 2.0 0.00 0.00 0.00 71 1015.1
20260831001100 72 288 1.0 2.0 0.00 0.00 0.00 70 1015.1
20260830235600 72 217 1.0 3.0 0.00 0.00 0.00 69 1015.0
20260830235100 72 265 2.0 5.0 0.00 0.00 0.00 69 1014.9
20260830234100 72 299 1.0 2.0 0.00 0.00 0.00 68 1014.8
20260830233059 72 254 1.0 2.0 0.00 0.00 0.00 67 1014.8
20260830232101 73 103 1.0 5.0 0.00 0.00 0.00 66 1014.8
20260830231600 73 290 1.0 2.0 0.00 0.00 0.00 66 1014.8
20260830230100 73 250 1.0 3.0 0.00 0.00 0.00 64 1015.0
20260830225559 73 152 0.0 3.0 0.00 0.00 0.00 64 1015.0
20260830225059 74 208 2.0 5.0 0.00 0.00 0.00 63 1014.9
20260830224559 74 239 2.0 5.0 0.00 0.00 0.00 62 1014.9
20260830224100 74 201 1.0 5.0 0.00 0.00 0.00 62 1015.1
20260830223600 74 221 1.0 2.0 0.00 0.00 0.00 63 1015.1
20260830223059 74 186 1.0 3.0 0.00 0.00 0.00 62 1015.2
20260830222600 74 209 2.0 7.0 0.00 0.00 0.00 60 1015.2
20260830222100 74 214 1.0 5.0 0.00 0.00 0.00 61 1015.2
20260830221559 74 283 2.0 5.0 0.00 0.00 0.00 59 1015.2
20260830221100 75 239 1.0 3.0 0.00 0.00 0.00 60 1015.4
20260830220059 75 63 1.0 5.0 0.00 0.00 0.00 58 1015.4
20260830215600 75 215 1.0 5.0 0.00 0.00 0.00 58 1015.3
20260830215059 75 247 1.0 5.0 0.00 0.00 0.00 56 1015.4
20260830214059 75 136 1.0 3.0 0.00 0.00 0.00 55 1015.4
20260830213600 76 254 1.0 5.0 0.00 0.00 0.00 56 1015.4
20260830213059 76 202 1.0 5.0 0.00 0.00 0.00 55 1015.4
20260830212600 76 293 1.0 2.0 0.00 0.00 0.00 55 1015.4
20260830212059 76 250 1.0 5.0 0.00 0.00 0.00 54 1015.4
20260830211600 76 236 1.0 2.0 0.00 0.00 0.00 54 1015.4
20260830211059 76 239 1.0 3.0 0.00 0.00 0.00 53 1015.4
20260830210559 76 217 1.0 5.0 0.00 0.00 0.00 54 1015.4
20260830210059 76 248 1.0 3.0 0.00 0.00 0.00 53 1015.4
20260830205059 77 253 1.0 3.0 0.00 0.00 0.00 54 1015.2
20260830204600 77 274 1.0 3.0 0.00 0.00 0.00 52 1015.2
20260830204100 77 184 1.0 3.0 0.00 0.00 0.00 52 1015.3
20260830203559 77 93 1.0 2.0 0.00 0.00 0.00 53 1015.3
20260830203059 77 317 2.0 3.0 0.00 0.00 0.00 52 1015.5
20260830202559 77 242 1.0 3.0 0.00 0.00 0.00 56 1015.5
20260830202059 77 222 1.0 5.0 0.00 0.00 0.00 53 1015.5
20260830201559 77 42 1.0 2.0 0.00 0.00 0.00 51 1015.8
20260830200059 77 201 1.0 2.0 0.00 0.00 0.00 51 1015.7
20260830195559 77 246 1.0 5.0 0.00 0.00 0.00 53 1015.8
20260830194059 77 148 2.0 3.0 0.00 0.00 0.00 50 1015.9
20260830193600 77 184 1.0 3.0 0.00 0.00 0.00 50 1016.0
20260830193059 78 270 1.0 2.0 0.00 0.00 0.00 53 1016.1
20260830192559 78 283 1.0 3.0 0.00 0.00 0.00 52 1016.1
20260830192059 78 257 1.0 2.0 0.00 0.00 0.00 52 1016.3
20260830191059 78 263 1.0 2.0 0.00 0.00 0.00 48 1016.5
20260830190559 78 230 2.0 5.0 0.00 0.00 0.00 47 1016.6
20260830190059 79 34 1.0 3.0 0.00 0.00 0.00 48 1016.5
20260830185559 79 243 1.0 6.0 0.00 0.00 0.00 47 1016.6
20260830185059 79 234 2.0 5.0 0.00 0.00 0.00 47 1016.6
20260830184559 79 34 2.0 5.0 0.00 0.00 0.00 50 1016.6
20260830184059 79 268 1.0 5.0 0.00 0.00 0.00 53 1016.8
20260830183559 80 259 1.0 3.0 0.00 0.00 0.00 52 1016.8
20260830183059 79 217 1.0 3.0 0.00 0.00 0.00 52 1016.9
20260830182559 79 195 2.0 5.0 0.00 0.00 0.00 51 1016.8
20260830182059 79 97 1.0 3.0 0.00 0.00 0.00 49 1016.8
20260830181059 79 247 1.0 5.0 0.00 0.00 0.00 48 1016.7
20260830180559 79 168 2.0 3.0 0.00 0.00 0.00 47 1016.7
20260830180058 80 196 1.0 3.0 0.00 0.00 0.00 45 1016.8
20260830175559 81 229 1.0 5.0 0.00 0.00 0.00 43 1016.8
20260830175059 81 246 1.0 2.0 0.00 0.00 0.00 44 1017.1
20260830174559 81 171 1.0 3.0 0.00 0.00 0.00 48 1017.1
20260830174059 80 193 1.0 3.0 0.00 0.00 0.00 47 1017.0
20260830173559 80 236 1.0 5.0 0.00 0.00 0.00 50 1017.2
20260830173058 80 255 1.0 2.0 0.00 0.00 0.00 47 1017.2
20260830172559 80 331 1.0 3.0 0.00 0.00 0.00 45 1017.2
20260830172059 80 291 2.0 6.0 0.00 0.00 0.00 43 1017.2
20260830171559 81 280 1.0 3.0 0.00 0.00 0.00 42 1017.3
20260830171059 81 164 1.0 5.0 0.00 0.00 0.00 43 1017.2
20260830170559 82 114 2.0 5.0 0.00 0.00 0.00 40 1017.3
20260830170059 82 233 1.0 3.0 0.00 0.00 0.00 41 1017.4
20260830165558 83 247 2.0 3.0 0.00 0.00 0.00 42 1017.4
20260830165059 83 230 2.0 5.0 0.00 0.00 0.00 38 1017.5
20260830164559 83 359 2.0 5.0 0.00 0.00 0.00 42 1017.4
20260830164059 83 272 2.0 7.0 0.00 0.00 0.00 39 1017.5
20260830163558 83 304 2.0 8.0 0.00 0.00 0.00 42 1017.6
20260830163059 83 207 1.0 8.0 0.00 0.00 0.00 44 1017.6
20260830162558 83 248 1.0 7.0 0.00 0.00 0.00 42 1017.6
20260830161559 82 267 2.0 5.0 0.00 0.00 0.00 43 1017.9
20260830161058 82 198 1.0 3.0 0.00 0.00 0.00 42 1017.9
20260830160558 81 194 1.0 5.0 0.00 0.00 0.00 44 1018.0
20260830160058 81 183 2.0 6.0 0.00 0.00 0.00 43 1018.0
20260830155059 81 236 2.0 6.0 0.00 0.00 0.00 44 1017.9
20260830154558 80 48 2.0 6.0 0.00 0.00 0.00 45 1017.9
20260830154059 81 231 1.0 7.0 0.00 0.00 0.00 44 1018.0
20260830153059 81 229 2.0 5.0 0.00 0.00 0.00 43 1018.0
20260830152558 81 217 2.0 5.0 0.00 0.00 0.00 47 1018.2
20260830152058 80 264 2.0 5.0 0.00 0.00 0.00 47 1018.2
20260830151559 80 220 2.0 5.0 0.00 0.00 0.00 45 1018.2
20260830151058 80 214 1.0 5.0 0.00 0.00 0.00 53 1018.2
20260830150558 79 268 2.0 3.0 0.00 0.00 0.00 51 1018.4
20260830150059 78 101 1.0 3.0 0.00 0.00 0.00 51 1018.5
20260830145559 79 193 2.0 5.0 0.00 0.00 0.00 50 1018.5
20260830144558 79 226 1.0 5.0 0.00 0.00 0.00 47 1018.5
20260830144059 80 206 1.0 2.0 0.00 0.00 0.00 48 1018.5
20260830143558 80 237 1.0 3.0 0.00 0.00 0.00 55 1018.6
20260830143059 79 273 1.0 3.0 0.00 0.00 0.00 49 1018.5
20260830142558 78 68 1.0 3.0 0.00 0.00 0.00 50 1018.6
20260830142059 78 190 1.0 3.0 0.00 0.00 0.00 54 1018.6
20260830141558 77 345 1.0 3.0 0.00 0.00 0.00 54 1018.6
20260830141058 77 149 1.0 5.0 0.00 0.00 0.00 52 1018.7
20260830140058 76 258 1.0 2.0 0.00 0.00 0.00 54 1018.8
20260830135558 75 8 2.0 3.0 0.00 0.00 0.00 56 1018.9
20260830134558 74 19 1.0 5.0 0.00 0.00 0.00 55 1019.0
20260830133558 74 201 1.0 3.0 0.00 0.00 0.00 57 1019.0
20260830133058 73 354 1.0 3.0 0.00 0.00 0.00 59 1019.0
20260830132559 72 207 0.0 3.0 0.00 0.00 0.00 61 1019.1
20260830132058 72 137 1.0 5.0 0.00 0.00 0.00 59 1019.1
20260830131558 72 90 1.0 2.0 0.00 0.00 0.00 59 1019.1
20260830131057 71 212 1.0 2.0 0.00 0.00 0.00 61 1019.3
20260830130558 70 202 1.0 3.0 0.00 0.00 0.00 61 1019.3
20260830130058 69 225 2.0 3.0 0.00 0.00 0.00 65 1019.2
20260830125058 68 202 0.0 2.0 0.00 0.00 0.00 66 1019.3
20260830124558 67 206 0.0 1.0 0.00 0.00 0.00 69 1019.3
20260830123058 66 225 1.0 2.0 0.00 0.00 0.00 70 1019.5
20260830122558 65 191 1.0 2.0 0.00 0.00 0.00 72 1019.5
20260830121558 64 221 1.0 2.0 0.00 0.00 0.00 73 1019.5
20260830121058 64 200 1.0 2.0 0.00 0.00 0.00 74 1019.5
20260830120058 63 203 1.0 1.0 0.00 0.00 0.00 75 1019.6
20260830114557 62 220 0.0 1.0 0.00 0.00 0.00 75 1019.5
20260830113558 62 220 0.0 1.0 0.00 0.00 0.00 77 1019.5
20260830113058 62 223 1.0 1.0 0.00 0.00 0.00 77 1019.5
20260830112558 61 214 1.0 1.0 0.00 0.00 0.00 77 1019.5
20260830111558 61 215 1.0 1.0 0.00 0.00 0.00 76 1019.5
20260830111057 61 260 0.0 1.0 0.00 0.00 0.00 75 1019.5
20260830110058 62 248 0.0 1.0 0.00 0.00 0.00 76 1019.6
20260830105557 62 110 0.0 1.0 0.00 0.00 0.00 74 1019.5
20260830105058 61 235 0.0 1.0 0.00 0.00 0.00 76 1019.5
20260830104558 61 148 0.0 1.0 0.00 0.00 0.00 76 1019.5
20260830104058 61 183 1.0 2.0 0.00 0.00 0.00 77 1019.6
20260830103558 61 246 0.0 1.0 0.00 0.00 0.00 75 1019.6
20260830103057 61 255 0.0 2.0 0.00 0.00 0.00 75 1019.6
20260830102558 61 247 1.0 2.0 0.00 0.00 0.00 75 1019.6
20260830101557 61 334 0.0 2.0 0.00 0.00 0.00 75 1019.7
20260830101058 61 247 1.0 2.0 0.00 0.00 0.00 75 1019.7
20260830100558 61 168 1.0 2.0 0.00 0.00 0.00 74 1019.8
20260830100057 61 32 0.0 1.0 0.00 0.00 0.00 75 1019.8
20260830094558 61 247 1.0 2.0 0.00 0.00 0.00 73 1019.7
20260830094058 61 253 1.0 3.0 0.00 0.00 0.00 73 1019.5
20260830093557 61 236 1.0 2.0 0.00 0.00 0.00 73 1019.5
20260830093057 61 247 1.0 2.0 0.00 0.00 0.00 73 1019.5
20260830092558 61 242 1.0 3.0 0.00 0.00 0.00 74 1019.5
20260830091557 61 172 1.0 3.0 0.00 0.00 0.00 74 1019.5
20260830091058 61 237 0.0 1.0 0.00 0.00 0.00 75 1019.5
20260830090057 61 246 1.0 2.0 0.00 0.00 0.00 74 1019.5
20260830085558 61 262 1.0 2.0 0.00 0.00 0.00 74 1019.7
20260830085057 61 149 1.0 2.0 0.00 0.00 0.00 76 1019.8
20260830084558 61 170 1.0 1.0 0.00 0.00 0.00 74 1019.8
20260830083557 61 233 1.0 3.0 0.00 0.00 0.00 76 1020.0
20260830083057 61 232 1.0 2.0 0.00 0.00 0.00 76 1020.1
20260830082557 60 246 1.0 2.0 0.00 0.00 0.00 77 1020.0
20260830081058 59 255 1.0 2.0 0.00 0.00 0.00 80 1020.3
20260830080558 59 227 1.0 2.0 0.00 0.00 0.00 81 1020.3
20260830080057 59 180 1.0 3.0 0.00 0.00 0.00 81 1020.3
20260830075557 59 180 0.0 2.0 0.00 0.00 0.00 81 1020.3
20260830075057 59 246 1.0 2.0 0.00 0.00 0.00 81 1020.3
20260830074557 59 228 0.0 1.0 0.00 0.00 0.00 81 1020.3
20260830074057 59 211 0.0 1.0 0.00 0.00 0.00 81 1020.2
20260830073558 59 236 0.0 1.0 0.00 0.00 0.00 81 1020.2
20260830073057 59 248 0.0 1.0 0.00 0.00 0.00 80 1020.0
20260830072557 59 251 1.0 1.0 0.00 0.00 0.00 80 1020.1
20260830072058 59 246 0.0 1.0 0.00 0.00 0.00 79 1020.1
20260830071557 59 246 1.0 1.0 0.00 0.00 0.00 78 1020.1
20260830071058 60 240 1.0 1.0 0.00 0.00 0.00 78 1020.0
20260830070557 60 242 1.0 2.0 0.00 0.00 0.00 78 1019.9
20260830070057 60 247 1.0 1.0 0.00 0.00 0.00 78 1019.9
20260830065557 60 243 0.0 1.0 0.00 0.00 0.00 78 1019.9
20260830065057 60 235 1.0 1.0 0.00 0.00 0.00 78 1019.8
20260830064557 60 219 0.0 1.0 0.00 0.00 0.00 77 1019.9
20260830063557 60 231 0.0 1.0 0.00 0.00 0.00 77 1019.9
20260830063057 60 250 1.0 1.0 0.00 0.00 0.00 77 1020.0
20260830062058 60 224 0.0 1.0 0.00 0.00 0.00 77 1019.9
20260830061557 60 234 0.0 1.0 0.00 0.00 0.00 77 1019.9
20260830061057 60 247 1.0 1.0 0.00 0.00 0.00 78 1020.0
20260830060557 60 245 1.0 1.0 0.00 0.00 0.00 77 1019.9
20260830060057 60 222 1.0 2.0 0.00 0.00 0.00 77 1020.1
20260830055557 60 228 1.0 1.0 0.00 0.00 0.00 78 1020.0
20260830055057 60 210 1.0 1.0 0.00 0.00 0.00 76 1020.0
20260830054057 60 231 1.0 1.0 0.00 0.00 0.00 77 1020.0
20260830053557 60 249 1.0 2.0 0.00 0.00 0.00 77 1020.1
20260830053057 60 240 1.0 1.0 0.00 0.00 0.00 77 1020.0
20260830052557 60 219 1.0 1.0 0.00 0.00 0.00 77 1020.2
20260830052057 60 245 1.0 1.0 0.00 0.00 0.00 77 1020.2
20260830051557 60 235 1.0 1.0 0.00 0.00 0.00 78 1020.2
20260830051057 60 224 1.0 2.0 0.00 0.00 0.00 77 1020.2
20260830045557 60 216 1.0 1.0 0.00 0.00 0.00 76 1020.2
20260830044556 60 223 1.0 1.0 0.00 0.00 0.00 77 1020.2
20260830043556 60 216 1.0 1.0 0.00 0.00 0.00 77 1020.2
20260830043057 60 203 1.0 2.0 0.00 0.00 0.00 76 1020.2
20260830042556 60 231 0.0 1.0 0.00 0.00 0.00 77 1020.2
20260830042057 60 236 0.0 1.0 0.00 0.00 0.00 77 1020.1
20260830041557 60 222 1.0 1.0 0.00 0.00 0.00 76 1020.1
20260830041057 60 222 0.0 1.0 0.00 0.00 0.00 76 1020.2
20260830040557 60 238 1.0 1.0 0.00 0.00 0.00 75 1020.2
20260830040057 60 225 0.0 1.0 0.00 0.00 0.00 75 1020.2
20260830035557 60 256 1.0 1.0 0.00 0.00 0.00 74 1020.3
20260830034557 61 219 1.0 1.0 0.00 0.00 0.00 72 1020.2
20260830033556 61 233 0.0 1.0 0.00 0.00 0.00 70 1020.2
20260830033057 62 221 1.0 1.0 0.00 0.00 0.00 70 1020.1
20260830032557 62 230 1.0 1.0 0.00 0.00 0.00 69 1020.1
20260830032057 62 226 1.0 1.0 0.00 0.00 0.00 69 1020.0
20260830031556 62 237 1.0 1.0 0.00 0.00 0.00 69 1020.2
20260830031057 62 238 0.0 1.0 0.00 0.00 0.00 69 1020.0